Location: Cardiff
(53.7833°N, 113.6000°W)
Time: 21:44:41
(UTC+00:00)

Oscar 19 - Pass Details

Date: 08 December 2023
Orbit: 771 x 789 km, 98.9° (Epoch: 04 March)

Event Time Altitude Azimuth Distance (km) Brightness Sun altitude
Rises 23:57:14 0° 189° (S) 3,235 14.5 -6.0°
Reaches altitude 10° 23:59:43 10° 198° (SSW) 2,313 13.9 -6.3°
Maximum altitude 00:04:22 35° 264° (W) 1,232 12.4 -6.9°
Drops below altitude 10° 00:09:04 10° 330° (NNW) 2,334 13.1 -7.5°
Sets 00:11:36 0° 339° (NNW) 3,269 13.8 -7.9°
